Weather History for Moab, UT

Change the Weather History Date:

Thursday, May 3, 2012

  Actual Average Record
Temperature  
Mean Temperature 64 °F 58 °F  
Max Temperature 83 °F 73 °F 93 °F (1992)
Min Temperature 44 °F 43 °F 32 °F (1967)
Degree Days  
Heating Degree Days 1 7  
Month to date heating degree days 1 23  
Since 1 July heating degree days 5041 5448  
Cooling Degree Days 0 1  
Month to date cooling degree days 9 1  
Year to date cooling degree days 27 4  
Growing Degree Days 15 (Base 50)    
Moisture  
Dew Point 23 °F    
Average Humidity 24    
Maximum Humidity 39    
Minimum Humidity 8    
Precipitation  
Precipitation 0.00 in 0.03 in 0.65 in (1934)
Month to date precipitation 0.00 0.07  
Year to date precipitation 0.65 2.69  
Sea Level Pressure  
Sea Level Pressure 29.73 in    
Wind  
Wind Speed 13 mph (South)    
Max Wind Speed 28 mph    
Max Gust Speed 37 mph    
Visibility 10 miles    
Events      
T = Trace of Precipitation, MM = Missing Value Source: NWS Daily Summary

Daily Weather History Graph

Daily Weather History Graph

Search for Another Location

Airport:

Trip Planner

Search our weather history database for the weather conditions in past years. The results will help you decide how hot, cold, wet, or windy it might be!

Date:

Astronomy

May. 03, 2012 Rise Set
Actual Time 6:18 AM MDT 8:13 PM MDT
Civil Twilight 5:49 AM MDT 8:42 PM MDT
Nautical Twilight 5:14 AM MDT 9:18 PM MDT
Astronomical Twilight 4:36 AM MDT 9:56 PM MDT
Moon 5:43 PM MDT (5/3) 4:22 AM MDT (5/3)
Length of Visible Light 14h 53m
Length of Day
13h 55m
Waxing Gibbous, 91% of the Moon is Illuminated
May 3
Waxing Gibbous
May 5
Full
May 12
Last Quarter
May 20
New
May 28
First Quarter

Hourly Weather History & Observations

Time (MDT) Temp. Dew Point Humidity Pressure Visibility Wind Dir Wind Speed Gust Speed Precip Events Conditions
12:53 AM 60.1 °F 25.0 °F 26% 29.70 in 10.0 mi ESE 3.5 mph - N/A   Clear
1:53 AM 57.9 °F 24.1 °F 27% 29.70 in 10.0 mi East 4.6 mph - N/A   Mostly Cloudy
2:53 AM 55.9 °F 23.0 °F 28% 29.70 in 10.0 mi Calm Calm - N/A   Clear
3:53 AM 55.0 °F 26.1 °F 33% 29.71 in 10.0 mi ESE 3.5 mph - N/A   Clear
4:53 AM 53.1 °F 26.1 °F 35% 29.74 in 10.0 mi Calm Calm - N/A   Clear
5:53 AM 50.0 °F 25.0 °F 38% 29.77 in 10.0 mi Calm Calm - N/A   Clear
6:53 AM 48.9 °F 24.1 °F 38% 29.79 in 10.0 mi ENE 3.5 mph - N/A   Clear
7:53 AM 60.1 °F 27.0 °F 28% 29.78 in 10.0 mi ESE 9.2 mph - N/A   Clear
8:53 AM 66.9 °F 27.0 °F 22% 29.80 in 10.0 mi SE 16.1 mph - N/A   Clear
9:53 AM 71.1 °F 28.0 °F 20% 29.78 in 10.0 mi South 11.5 mph - N/A   Clear
10:53 AM 73.9 °F 27.0 °F 18% 29.79 in 10.0 mi South 18.4 mph 26.5 mph N/A   Clear
11:53 AM 75.9 °F 24.1 °F 15% 29.76 in 8.0 mi SSW 18.4 mph 27.6 mph N/A   Clear
12:53 PM 78.8 °F 21.2 °F 12% 29.88 in 10.0 mi SW 21.9 mph 29.9 mph N/A   Clear
1:53 PM 79.0 °F 19.9 °F 11% 29.72 in 10.0 mi South 23.0 mph 32.2 mph N/A   Clear
2:53 PM 79.0 °F 19.0 °F 11% 29.70 in 10.0 mi South 20.7 mph 29.9 mph N/A   Clear
3:53 PM 82.0 °F 16.0 °F 8% 29.68 in 10.0 mi SW 25.3 mph 34.5 mph N/A   Clear
4:53 PM 80.1 °F 16.0 °F 9% 29.68 in 10.0 mi SW 24.2 mph 32.2 mph N/A   Clear
5:53 PM 78.1 °F 17.1 °F 10% 29.69 in 10.0 mi SW 19.6 mph 27.6 mph N/A   Clear
6:53 PM 77.0 °F 18.0 °F 11% 29.70 in 10.0 mi SW 23.0 mph - N/A   Clear
7:53 PM 75.0 °F 19.9 °F 13% 29.69 in 10.0 mi SSW 10.4 mph - N/A   Clear
8:53 PM 70.0 °F 21.0 °F 16% 29.68 in 10.0 mi SSW 8.1 mph - N/A   Clear
9:53 PM 66.0 °F 21.9 °F 19% 29.69 in 10.0 mi SW 10.4 mph - N/A   Clear
10:53 PM 63.0 °F 23.0 °F 22% 29.70 in 10.0 mi SW 10.4 mph - N/A   Clear
11:53 PM 61.0 °F 23.0 °F 23% 29.70 in 10.0 mi SW 10.4 mph - N/A   Clear